Tracking 28794 objects as of 19-Apr-2024
HD Live streaming from Space Station
objects crossing your sky now

DELTA 1 DEB

Track DELTA 1 DEB now!
10-day predictions


NORAD ID: 7156
Int'l Code: 1973-086DV
Perigee: 1,514.4 km
Apogee: 1,733.4 km
Inclination: 102.1 °
Period: 118.6 minutes
Semi major axis: 7994 km
RCS: 0.1028 m2 (medium)
Launch date: November 6, 1973
Source: United States (US)
Launch site: AIR FORCE WESTERN TEST RANGE (AFWTR)

Note: This is SATELLITE DEBRIS
Your satellite tracking list
Your tracking list is empty




NASA's NSSDC Master Catalog

Two Line Element Set (TLE):
1 07156U 73086DV  24110.22498729 -.00000055  00000-0 -13893-3 0  9993
2 07156 102.0859  17.0465 0136937 147.3984   7.7507 12.14460287236714
Source of the keplerian elements: AFSPC